DateTimeUTC,F1_A11,F1_S11,BsB_S11,BsG_S11,BsR_S11,BbsB_S11,BbsG_S11,BbsR_S11,BaB_A11,BaG_A11,BaR_A11,Tu_S11,T_S11,Uu_S11,U_S11,P_S11,T1_A11
2021-08-12T05:00:00Z,00040200,20000000,,,,,,,0000.44,0000.53,0000.25,18.4,25.1,07.5,05.0,0673.9,31.0
2021-08-12T05:01:00Z,00040200,20000000,,,,,,,-000.30,0000.04,-000.12,18.4,25.1,07.6,05.0,0673.9,31.0
2021-08-12T05:02:00Z,00040200,20000000,,,,,,,0000.01,-000.08,-000.00,18.4,25.2,07.6,05.0,0673.9,31.0
2021-08-12T05:03:00Z,00040200,60000000,,,,,,,0000.22,-000.17,0000.07,18.5,25.2,07.5,05.0,0673.9,31.0
2021-08-12T05:04:00Z,00040200,40000000,0001.62,0000.81,0000.77,0000.59,0000.32,0000.05,-000.43,0000.09,0000.04,18.7,25.1,07.4,05.0,0674.8,31.0
2021-08-12T05:05:00Z,00040200,00000000,0001.50,0001.11,0000.89,0000.63,0000.05,0000.18,0000.44,-000.08,0000.53,18.7,25.0,07.4,05.1,0674.8,31.0
2021-08-12T05:06:00Z,00040200,00000000,0001.34,0001.13,0000.52,0000.31,-000.05,-000.07,0000.21,0000.71,-000.41,18.7,25.0,07.5,05.1,0674.8,31.0
2021-08-12T05:07:00Z,00040200,00000000,0000.88,0000.63,0000.54,0000.06,0000.15,-000.12,0000.39,-000.10,0000.49,18.7,25.0,07.5,05.1,0674.8,31.0
2021-08-12T05:08:00Z,00040200,00000000,0000.72,0000.82,0000.68,0000.23,-000.09,0000.39,0000.06,0000.46,0000.27,18.6,24.9,07.5,05.1,0674.8,31.0
2021-08-12T05:09:00Z,00040200,00000000,0001.26,0001.06,0000.83,0000.52,-000.10,0000.26,0000.11,0000.15,0000.16,18.6,24.9,07.5,05.1,0674.9,31.0
2021-08-12T05:10:00Z,00040200,00000000,0000.71,0000.46,0000.67,0000.13,-000.00,0000.36,0000.28,0000.07,-000.11,18.5,24.9,07.5,05.1,0674.9,31.0
2021-08-12T05:11:00Z,00040200,00000000,0001.10,0000.74,0000.97,0000.30,-000.33,-000.03,0000.21,0000.41,0000.24,18.5,24.8,07.5,05.1,0674.9,31.0
2021-08-12T05:12:00Z,00040200,00000000,0000.94,0000.81,0000.73,0000.61,0000.12,0000.45,0000.08,0000.18,0000.05,18.5,24.8,07.6,05.2,0674.8,31.0
2021-08-12T05:13:00Z,00040200,00000000,0000.86,0000.71,0000.42,0000.57,-000.09,0000.22,0000.37,0000.29,0000.19,18.5,24.8,07.5,05.1,0674.8,31.0
2021-08-12T05:14:00Z,00040200,00000000,0001.30,0000.99,0000.52,-000.00,0000.14,0000.09,0000.36,-000.02,0000.31,18.6,24.8,07.5,05.1,0674.8,31.0
2021-08-12T05:15:00Z,00040200,00000000,0000.66,0000.98,0000.66,0000.57,0000.18,-000.23,0000.07,0000.44,0000.11,18.7,24.9,07.5,05.1,0674.8,31.0
2021-08-12T05:16:00Z,00040200,00000000,0001.26,0000.93,0000.46,0001.06,-000.10,0000.16,-000.09,-000.02,0000.15,18.7,24.9,07.5,05.2,0674.9,31.0
2021-08-12T05:17:00Z,00040200,00000000,0000.22,0000.98,0000.91,0000.42,0000.09,-000.09,0000.43,0000.32,0000.13,18.8,24.9,07.5,05.2,0674.9,31.0
2021-08-12T05:18:00Z,00040200,00000000,0001.15,0000.87,0000.64,0000.60,-000.09,0000.14,-000.18,-000.07,-000.25,18.8,24.9,07.5,05.1,0674.9,31.0
2021-08-12T05:19:00Z,00040200,00000000,0000.58,0000.78,0000.84,0000.18,0000.11,-000.10,0000.43,0000.07,0000.16,18.7,24.9,07.5,05.1,0674.9,31.0
2021-08-12T05:20:00Z,00040200,00000000,0000.97,0001.02,0000.58,-000.22,0000.14,0000.30,0000.02,0000.35,0000.25,18.7,24.9,07.5,05.1,0674.9,31.0
2021-08-12T05:21:00Z,00040200,00000000,0001.07,0000.71,0000.40,0000.56,0000.44,0000.03,0000.03,-000.55,-000.13,18.7,24.9,07.5,05.1,0674.9,31.0
2021-08-12T05:22:00Z,00040200,00000000,0001.30,0000.95,0000.61,0000.31,-000.09,-000.11,-000.07,0000.67,0000.29,18.6,24.9,07.4,05.1,0674.8,31.0
2021-08-12T05:23:00Z,00040200,00000000,0001.68,0000.98,0000.82,0000.01,0000.30,0000.08,0000.68,-000.14,-000.09,18.6,24.8,07.5,05.1,0674.8,31.0
2021-08-12T05:24:00Z,00040200,00000000,0000.77,0000.95,0000.68,-000.09,0000.00,0000.13,-000.24,0000.20,0000.43,18.6,24.8,07.5,05.1,0674.9,31.0
2021-08-12T05:25:00Z,00040200,00000000,0000.71,0000.91,0000.44,0000.30,0000.11,0000.33,0000.44,0000.07,0000.05,18.5,24.8,07.4,05.1,0674.9,31.0
2021-08-12T05:26:00Z,00040200,00000000,0000.62,0000.53,0000.61,0000.27,0000.15,0000.21,0000.30,0000.40,0000.24,18.5,24.8,07.4,05.1,0674.9,31.0
2021-08-12T05:27:00Z,00040200,00000000,0001.21,0000.99,0000.67,-000.04,0000.21,0000.31,0000.06,0000.33,0000.26,18.5,24.7,07.5,05.1,0674.9,31.0
2021-08-12T05:28:00Z,00040200,00000000,0001.40,0000.56,0000.55,0000.50,0000.13,0000.15,0000.41,0000.53,-000.24,18.5,24.8,07.5,05.1,0674.9,31.0
2021-08-12T05:29:00Z,00040200,00000000,0000.79,0000.75,0000.35,0000.21,0000.25,0000.10,0000.06,-000.42,0000.40,18.6,24.8,07.4,05.1,0674.9,31.0
2021-08-12T05:30:00Z,00040200,00000000,0000.75,0000.77,0000.72,0000.63,-000.22,0000.18,-000.09,0000.30,0000.09,18.7,24.8,07.3,05.0,0674.9,31.0
2021-08-12T05:31:00Z,00040200,00000000,0001.34,0001.12,0000.71,0000.12,0000.01,0000.06,0000.45,-000.21,-000.01,18.7,24.9,07.3,05.0,0674.9,31.0
2021-08-12T05:32:00Z,00040200,00000000,0001.07,0000.66,0000.60,0000.16,-000.11,0000.21,0000.04,0000.19,-000.05,18.7,24.9,07.2,05.0,0674.9,31.0
2021-08-12T05:33:00Z,00040200,00000000,0001.12,0000.78,0000.53,0000.03,0000.06,-000.20,-000.09,0000.46,0000.12,18.7,24.9,07.3,05.0,0675.0,31.0
2021-08-12T05:34:00Z,00040200,00000000,0000.68,0000.80,0000.71,-000.24,-000.03,0000.22,0000.06,-000.21,-000.16,18.7,24.9,07.3,05.0,0675.0,31.0
2021-08-12T05:35:00Z,00040200,00000000,0001.10,0000.55,0000.52,0000.38,0000.16,-000.08,-000.36,-000.39,0000.02,18.7,24.8,07.2,05.0,0675.0,31.0
2021-08-12T05:36:00Z,00040200,00000000,0001.08,0001.02,0000.54,-000.11,0000.03,0000.47,0000.71,0000.34,0000.34,18.6,24.8,07.3,05.0,0675.0,31.0
2021-08-12T05:37:00Z,00040200,00000000,0001.04,0000.82,0000.73,-000.19,0000.10,-000.03,0000.18,0000.12,-000.14,18.6,24.8,07.2,04.9,0675.0,31.0
2021-08-12T05:38:00Z,00040200,00000000,0000.73,0000.90,0000.63,0000.46,0000.49,0000.26,-000.05,0000.41,0000.20,18.6,24.8,07.2,05.0,0675.0,31.0
2021-08-12T05:39:00Z,00040200,00000000,0001.30,0000.71,0000.54,-000.05,0000.24,0000.23,-000.20,-000.23,-000.24,18.5,24.8,07.1,04.9,0675.0,31.0
2021-08-12T05:40:00Z,00040200,00000000,0001.10,0001.18,0000.63,0000.63,-000.01,-000.16,0000.02,0000.13,0000.45,18.5,24.8,07.1,04.9,0675.0,31.0
2021-08-12T05:41:00Z,00040200,00000000,0000.40,0000.71,0000.59,-000.08,-000.25,0000.16,0000.28,-000.03,-000.25,18.5,24.8,07.2,04.9,0674.9,31.0
2021-08-12T05:42:00Z,00040200,00000000,0000.97,0000.83,0000.72,0000.09,0000.27,0000.16,0000.47,0000.42,0000.27,18.5,24.7,07.2,04.9,0674.9,31.0
2021-08-12T05:43:00Z,00040200,00000000,0000.63,0000.77,0000.60,0000.23,0000.15,0000.02,0000.26,0000.22,0000.22,18.5,24.7,07.2,04.9,0674.9,31.0
2021-08-12T05:44:00Z,00040200,00000000,0000.58,0000.63,0000.65,0000.05,-000.18,0000.14,0000.06,0000.34,0000.20,18.6,24.7,07.1,04.9,0674.9,31.0
2021-08-12T05:45:00Z,00040200,00000000,0000.46,0001.14,0000.58,0000.17,0000.28,-000.25,0000.09,0000.03,0000.00,18.7,24.8,07.1,04.9,0674.9,31.0
2021-08-12T05:46:00Z,00040200,00000000,0001.02,0000.95,0000.67,0000.36,-000.14,-000.25,0000.25,-000.15,0000.25,18.7,24.9,07.0,04.9,0674.9,31.0
2021-08-12T05:47:00Z,00040200,00000000,0001.26,0000.97,0000.83,0000.50,0000.49,0000.08,0000.03,0000.40,0000.10,18.8,24.9,07.0,04.8,0675.0,31.0
2021-08-12T05:48:00Z,00040200,00000000,0001.14,0000.88,0000.15,0000.35,0000.24,0000.07,0000.03,-000.13,-000.30,18.9,24.9,06.9,04.7,0675.0,31.0
2021-08-12T05:49:00Z,00040200,00000000,0001.07,0000.68,0000.79,0000.26,-000.15,0000.04,0000.20,-000.02,0000.55,18.9,25.0,06.8,04.7,0675.0,31.0
2021-08-12T05:50:00Z,00040200,00000000,0000.50,0000.92,0000.43,0000.19,0000.07,0000.09,-000.04,0000.11,-000.23,18.8,25.0,06.9,04.7,0675.0,31.0
2021-08-12T05:51:00Z,00040200,00000000,0001.21,0000.98,0000.44,0000.50,-000.15,0000.08,0000.18,0000.65,-000.08,18.8,24.9,06.8,04.7,0675.0,31.0
2021-08-12T05:52:00Z,00040200,00000000,0000.92,0000.77,0000.42,0000.39,0000.07,0000.14,-000.12,-000.24,0000.33,18.7,24.9,06.8,04.7,0675.1,31.0
2021-08-12T05:53:00Z,00040200,00000000,0000.63,0000.92,0000.70,0000.41,0000.15,0000.34,0000.38,-000.06,-000.29,18.7,24.9,06.8,04.7,0675.0,31.0
2021-08-12T05:54:00Z,00040200,00000000,0000.81,0000.89,0000.74,-000.09,0000.00,0000.25,-000.22,0000.19,0000.25,18.7,24.9,06.8,04.7,0675.0,31.0
2021-08-12T05:55:00Z,00040200,00000000,0000.78,0000.65,0000.47,-000.15,-000.08,0000.14,0000.55,0000.16,-000.11,18.6,24.8,06.8,04.7,0675.0,31.0
2021-08-12T05:56:00Z,00040200,00000000,0001.18,0000.83,0000.84,-000.17,-000.01,0000.23,-000.12,0000.07,0000.10,18.6,24.8,06.7,04.6,0675.0,31.0
2021-08-12T05:57:00Z,00040200,40000000,,,,,,,0000.54,0000.39,0000.73,18.6,24.8,06.3,04.3,0675.1,31.0
2021-08-12T05:58:00Z,00040200,60000000,,,,,,,-000.29,-000.31,-000.44,18.3,25.0,06.9,04.6,0674.1,31.0
2021-08-12T05:59:00Z,00040200,20000000,,,,,,,0000.11,0000.01,0000.31,18.3,25.1,06.9,04.5,0674.1,31.0
